TimeAKDT,TemperatureF,Dew PointF,Humidity,Sea Level PressureIn,VisibilityMPH,Wind Direction,Wind SpeedMPH,Gust SpeedMPH,PrecipitationIn,Events,Conditions,WindDirDegrees,DateUTC
12:04 AM,42.8,41.0,93,29.89,10.0,ENE,17.3,-,N/A,,Overcast,60,2012-10-07 08:04:00
12:17 AM,42.8,41.0,93,29.89,10.0,ENE,15.0,-,N/A,,Overcast,60,2012-10-07 08:17:00
12:53 AM,42.1,41.0,96,29.85,10.0,NE,16.1,-,N/A,,Overcast,50,2012-10-07 08:53:00
1:53 AM,42.1,41.0,96,29.84,10.0,NE,20.7,-,N/A,,Overcast,50,2012-10-07 09:53:00
2:53 AM,42.1,41.0,96,29.86,10.0,NE,18.4,-,N/A,,Overcast,50,2012-10-07 10:53:00
3:53 AM,42.1,39.9,92,29.86,10.0,NE,17.3,-,0.01,,Overcast,50,2012-10-07 11:53:00
4:53 AM,42.1,39.9,92,29.85,8.0,NE,19.6,-,0.01,Rain,Light Rain,50,2012-10-07 12:53:00
5:03 AM,42.8,39.2,87,29.89,8.0,NE,20.7,-,0.00,Rain,Light Rain,50,2012-10-07 13:03:00
5:17 AM,42.8,41.0,93,29.88,8.0,NE,20.7,27.6,0.01,Rain,Light Rain,50,2012-10-07 13:17:00
5:53 AM,42.1,41.0,96,29.84,8.0,NE,20.7,-,0.01,Rain,Light Rain,50,2012-10-07 13:53:00
6:53 AM,42.1,41.0,96,29.82,7.0,NE,24.2,31.1,0.02,Rain,Light Rain,40,2012-10-07 14:53:00
7:25 AM,42.8,41.0,93,29.85,9.0,NE,24.2,32.2,0.02,Rain,Light Rain,40,2012-10-07 15:25:00
7:49 AM,42.8,41.0,93,29.85,8.0,NE,25.3,-,0.03,Rain,Light Rain,40,2012-10-07 15:49:00
7:53 AM,42.1,41.0,96,29.82,7.0,NE,25.3,33.4,0.04,Rain,Light Rain,40,2012-10-07 15:53:00
8:06 AM,42.8,41.0,93,29.84,8.0,NE,27.6,33.4,0.01,Rain,Light Rain,40,2012-10-07 16:06:00
8:38 AM,42.8,41.0,93,29.84,7.0,NE,27.6,34.5,0.03,Rain,Light Rain,40,2012-10-07 16:38:00
8:53 AM,42.1,41.0,96,29.81,6.0,NE,27.6,34.5,0.04,Rain,Light Rain,40,2012-10-07 16:53:00
9:53 AM,43.0,42.1,97,29.80,10.0,NE,35.7,43.7,0.02,,Overcast,40,2012-10-07 17:53:00
10:53 AM,43.0,42.1,97,29.80,5.0,NNE,34.5,43.7,N/A,,Overcast,30,2012-10-07 18:53:00
11:53 AM,43.0,42.1,97,29.80,4.0,NE,38.0,46.0,N/A,,Overcast,40,2012-10-07 19:53:00
12:05 PM,42.8,42.8,100,29.81,2.5,NE,41.4,49.5,N/A,,Overcast,40,2012-10-07 20:05:00
12:23 PM,42.8,42.8,100,29.81,1.8,NE,40.3,51.8,N/A,,Overcast,40,2012-10-07 20:23:00
12:25 PM,42.8,42.8,100,29.81,2.0,NE,41.4,51.8,N/A,,Overcast,40,2012-10-07 20:25:00
12:53 PM,43.0,42.1,97,29.78,2.5,NE,40.3,48.3,N/A,,Overcast,40,2012-10-07 20:53:00
1:01 PM,42.8,42.8,100,29.80,3.0,NE,39.1,48.3,N/A,,Overcast,40,2012-10-07 21:01:00
1:53 PM,43.0,42.1,97,29.76,5.0,NE,44.9,50.6,N/A,,Overcast,40,2012-10-07 21:53:00
2:11 PM,42.8,42.8,100,29.79,4.0,NE,41.4,52.9,0.00,Rain,Light Rain,40,2012-10-07 22:11:00
2:53 PM,42.1,42.1,100,29.75,4.0,NE,41.4,49.5,0.02,,Overcast,40,2012-10-07 22:53:00
3:43 PM,42.8,42.8,100,29.77,2.0,NE,36.8,48.3,N/A,,Overcast,40,2012-10-07 23:43:00
3:51 PM,42.8,42.8,100,29.77,1.2,NE,38.0,48.3,N/A,,Overcast,50,2012-10-07 23:51:00
3:53 PM,42.1,42.1,100,29.73,1.2,NE,38.0,48.3,N/A,,Overcast,40,2012-10-07 23:53:00
4:06 PM,42.8,42.8,100,29.78,1.0,NE,35.7,48.3,N/A,,Overcast,50,2012-10-08 00:06:00
4:14 PM,42.8,42.8,100,29.77,1.2,NE,36.8,46.0,0.01,Rain,Light Rain,40,2012-10-08 00:14:00
4:45 PM,42.8,42.8,100,29.79,1.0,NE,32.2,41.4,0.05,Rain,Light Rain,40,2012-10-08 00:45:00
4:53 PM,42.1,42.1,100,29.75,1.0,NE,31.1,40.3,0.06,Rain,Rain,40,2012-10-08 00:53:00
5:06 PM,42.8,42.8,100,29.78,1.5,NE,32.2,41.4,0.02,Rain,Light Rain,40,2012-10-08 01:06:00
5:19 PM,42.8,42.8,100,29.79,2.0,NE,31.1,41.4,0.04,Rain,Light Rain,40,2012-10-08 01:19:00
5:29 PM,42.8,42.8,100,29.78,1.2,NE,33.4,-,0.06,Rain,Light Rain,40,2012-10-08 01:29:00
5:36 PM,42.8,42.8,100,29.78,1.0,NE,34.5,42.6,0.07,Rain,Light Rain,40,2012-10-08 01:36:00
5:50 PM,42.8,42.8,100,29.78,1.2,NNE,34.5,42.6,0.09,Rain,Light Rain,30,2012-10-08 01:50:00
5:53 PM,42.1,42.1,100,29.75,1.2,NE,32.2,42.6,0.09,Rain,Light Rain,40,2012-10-08 01:53:00
6:42 PM,42.8,42.8,100,29.77,2.0,NE,29.9,38.0,0.02,Rain,Light Rain,40,2012-10-08 02:42:00
6:53 PM,42.1,42.1,100,29.73,2.5,NE,31.1,38.0,0.02,,Overcast,40,2012-10-08 02:53:00
7:20 PM,42.8,42.8,100,29.79,1.5,NE,28.8,35.7,0.02,Rain,Light Rain,50,2012-10-08 03:20:00
7:53 PM,42.1,42.1,100,29.75,2.0,NE,28.8,39.1,0.05,Rain,Light Rain,50,2012-10-08 03:53:00
8:36 PM,42.8,42.8,100,29.79,3.0,NE,29.9,36.8,0.01,,Overcast,40,2012-10-08 04:36:00
8:53 PM,42.1,42.1,100,29.77,3.0,NE,28.8,36.8,0.01,,Overcast,40,2012-10-08 04:53:00
9:08 PM,42.8,42.8,100,29.80,2.5,NE,29.9,36.8,0.00,Rain,Light Rain,40,2012-10-08 05:08:00
9:37 PM,42.8,42.8,100,29.81,3.0,NE,29.9,36.8,0.01,,Overcast,40,2012-10-08 05:37:00
9:53 PM,42.1,42.1,100,29.79,3.0,NE,28.8,38.0,0.01,,Overcast,40,2012-10-08 05:53:00
10:00 PM,42.8,42.8,100,29.82,2.5,NE,28.8,38.0,N/A,,Overcast,40,2012-10-08 06:00:00
10:34 PM,42.8,42.8,100,29.83,3.0,NE,26.5,34.5,0.00,,Overcast,40,2012-10-08 06:34:00
10:44 PM,42.8,42.8,100,29.83,2.0,NE,27.6,32.2,0.00,,Overcast,40,2012-10-08 06:44:00
10:53 PM,42.1,42.1,100,29.80,2.0,NE,27.6,-,0.00,,Overcast,40,2012-10-08 06:53:00
11:02 PM,42.8,42.8,100,29.83,1.8,NE,26.5,33.4,N/A,,Overcast,40,2012-10-08 07:02:00
11:17 PM,42.8,42.8,100,29.83,2.0,NE,28.8,34.5,0.01,Rain,Light Rain,40,2012-10-08 07:17:00
11:33 PM,42.8,42.8,100,29.84,3.0,NE,27.6,-,0.01,,Overcast,40,2012-10-08 07:33:00
11:46 PM,42.8,42.8,100,29.84,2.5,NE,27.6,-,0.01,,Overcast,40,2012-10-08 07:46:00
11:53 PM,42.1,42.1,100,29.81,2.5,NE,27.6,-,0.01,,Overcast,40,2012-10-08 07:53:00